User: anonymous   Login
Location: Unspecified
(0.0000°N, 0.0000°E)
Time: 21:48:20
(UTC+00:00)
Language:

COSMOS 2401 - Orbit

View from above orbital plane
View from above orbital plane
View from above satellite
View from above satellite

Ground track
Ground track

The orbit data is extracted from the following two-line orbital elements,

1 27869U 03037B   17117.70291480 -.00000000 +00000-0 -72970-4 0  9994
2 27869 082.4678 260.2032 0023161 156.8432 203.3696 12.45451596622445
Epoch (UTC): 27 April 2017 16:52:11
Eccentricity: 0.0023161
inclination: 82.4678°
perigee height: 1465 km
apogee height: 1502 km
right ascension of ascending node: 260.2032°
argument of perigee: 156.8432°
revolutions per day: 12.45451596
mean anomaly at epoch: 203.3696°
orbit number at epoch: 62244

The dashed part of the orbit path shows where the satellite is in the earth's shadow,  

DLR